STARLINK-1688 (46371 NORAD) Tracking and Keplerian Element Data

This shows tracking and keplerian element data for the satellite.

Feedback or suggestion? Click here.




ElementValue
Catalog46371
NameSTARLINK-1688
Epoch Orbit178
Epoch Day268.91668981
Epoch Year2020
RAAN323.7808
Inclination53.0011
Eccentricity0.0001342
Argument of Perigee64.4834
Mean Anonmoly131.9015
Mean Motion15.62778935
Decay Rate0.00028018
L11 46371U 20062AY 20268.91668981 .00028018 00000-0 31045-3 0 9992
L22 46371 53.0011 323.7808 0001342 64.4834 131.9015 15.62778935 1782

Live tracking and technical data element details for STARLINK-1688 (NORAD 46371). STARLINK-1688 can be tracked NOW for your location showing map with azimuth and elevation plus other details from your city location.

Track the satellite on the map from your city or location and see movement details for azimuth, elevation, latitude, longitude, range, height, and movement on the map or in text.







IsCatalogInMostPopularTable: catalog: 46371, numindb: 5
Update: records affected: 1



GetName: 46371 STARLINK-1688

Hit Count: updated at: Sat, 26 Sep 2020 15:10:34 GMT